TimeEDT,TemperatureF,Dew PointF,Humidity,Sea Level PressureIn,VisibilityMPH,Wind Direction,Wind SpeedMPH,Gust SpeedMPH,PrecipitationIn,Events,Conditions,WindDirDegrees,DateUTC
1:56 AM,48.9,36.0,61,30.22,10.0,SE,4.6,-,N/A,,Overcast,130,2012-10-14 05:56:00
2:56 AM,48.9,39.9,71,30.22,10.0,Calm,Calm,-,N/A,,Overcast,0,2012-10-14 06:56:00
3:56 AM,48.9,39.9,71,30.20,10.0,Calm,Calm,-,N/A,,Overcast,0,2012-10-14 07:56:00
4:56 AM,51.1,41.0,68,30.19,10.0,Calm,Calm,-,N/A,,Overcast,0,2012-10-14 08:56:00
5:56 AM,51.1,41.0,68,30.19,10.0,Variable,3.5,-,N/A,,Overcast,0,2012-10-14 09:56:00
6:56 AM,52.0,43.0,71,30.18,10.0,Variable,3.5,-,N/A,,Overcast,0,2012-10-14 10:56:00
7:56 AM,52.0,44.1,74,30.18,10.0,South,3.5,-,0.00,,Mostly Cloudy,170,2012-10-14 11:56:00
8:56 AM,53.1,44.1,71,30.19,10.0,Calm,Calm,-,N/A,,Overcast,0,2012-10-14 12:56:00
9:56 AM,54.0,45.0,72,30.19,10.0,South,4.6,-,N/A,,Overcast,180,2012-10-14 13:56:00
10:56 AM,54.0,45.0,72,30.17,10.0,Calm,Calm,-,0.00,Rain,Light Rain,0,2012-10-14 14:56:00
11:56 AM,55.0,46.0,72,30.16,10.0,Calm,Calm,-,0.00,,Overcast,0,2012-10-14 15:56:00
12:56 PM,60.1,46.9,62,30.12,10.0,Variable,3.5,-,N/A,,Mostly Cloudy,0,2012-10-14 16:56:00
1:56 PM,63.0,48.0,58,30.08,10.0,East,3.5,-,N/A,,Mostly Cloudy,80,2012-10-14 17:56:00
2:56 PM,68.0,48.9,50,30.04,10.0,Calm,Calm,-,N/A,,Scattered Clouds,0,2012-10-14 18:56:00
3:56 PM,69.1,51.1,53,30.01,10.0,Variable,3.5,-,N/A,,Scattered Clouds,0,2012-10-14 19:56:00
4:56 PM,70.0,51.1,51,29.99,10.0,Variable,6.9,16.1,N/A,,Scattered Clouds,0,2012-10-14 20:56:00
5:56 PM,66.9,52.0,59,29.98,10.0,SSE,8.1,-,N/A,,Mostly Cloudy,160,2012-10-14 21:56:00
6:56 PM,64.0,52.0,65,29.97,10.0,SSE,10.4,-,N/A,,Scattered Clouds,150,2012-10-14 22:56:00
7:56 PM,64.0,51.1,63,29.96,10.0,SSE,10.4,-,N/A,,Scattered Clouds,160,2012-10-14 23:56:00
8:56 PM,60.1,51.1,72,29.94,10.0,SSE,6.9,-,N/A,,Scattered Clouds,150,2012-10-15 00:56:00
9:56 PM,57.0,50.0,77,29.92,10.0,SE,5.8,-,N/A,,Mostly Cloudy,130,2012-10-15 01:56:00
10:56 PM,60.1,51.1,72,29.91,10.0,ESE,6.9,-,N/A,,Overcast,110,2012-10-15 02:56:00
11:56 PM,57.9,51.1,78,29.90,10.0,Calm,Calm,-,N/A,,Overcast,0,2012-10-15 03:56:00